Weather in Kandy

Sri Lanka     7°17′38″N   80°38′18″E
В апреле 2022 года жителям России запретили посещать сайт meteo.paraplan.net по решению Генеральной прокуратуры. Аудитория сайта уменьшилась в 10 раз. Владельцы сайта не видят смысла в поддержке погодного сервера в таких условиях. Сайт будет закрыт в октябре.
temp.,
°C
wind,
m/s
gust,
m/s
humid.,
%
clouds,
%
prec.,
mm/h
press.,
hPa
HPBL,
m
6 october, thu
thu623:30+19wsw229096 0.0 101158
02:30+19w2391100 0.0 100999
05:30+19wsw2393100 0.0 101064
08:30+23w3674100 0.0 1011582
11:30+27w4755100 0.0 10091502
14:30+26w575791 0.0 10071447
17:30+21w2585100 0.1 1009335
20:30+20wsw2393100 0.0 101280
7 october, fri
fri723:30+20w2283100 0.0 101173
02:30+19wsw228997 0.0 100961
05:30+19wsw2289100 0.0 101035
08:30+23w356787 0.0 1012759
11:30+27w465373 0.0 10091604
14:30+26w576045 0.1 10071444
17:30+23wnw357794 0.2 1009463
20:30+19w2393100 0.0 1012103
8 october, sat
sat823:30+19wsw2391100 0.0 1011105
02:30+19wsw2485100 0.0 1009128
05:30+18wsw238780 0.0 101057
08:30+23w346993 0.0 1011681
11:30+26w3560100 0.1 10101414
14:30+26w356285 0.2 10071262
17:30+22w2478100 0.3 1009295
20:30+19wsw229511 0.0 101150
9 october, sun
sun923:30+18wsw229412 0.0 101137
02:30+18wsw229297 0.0 101042
05:30+18wsw229176 0.0 101137
08:30+24w23658 0.0 1012627
11:30+28wnw345121 0.0 10101697
14:30+28w555015 0.0 10081751
17:30+23wnw34715 0.0 1009223
20:30+20wsw229024 0.0 101225
10 october, mon
mon1023:30+19wsw219221 0.0 101222
02:30+18wsw228750 0.0 101028
05:30+18sw228867 0.0 101122
08:30+24w2363100 0.0 1012576
11:30+28wnw3350100 0.0 10111563
14:30+27wnw345874 0.0 10081017
17:30+23wnw247632 0.8 1010330
20:30+20w219339 0.2 101237